Back to catalog

STARLINK-4356

AliveCommunicationsSSO
NORAD 53224·PAYLOAD·🇺🇸 United States

Launched Jul 22, 2022 from Vandenberg Space Force Base

Loading…

Next Passes (next 24 hours)

TLE

FreshSource: CelesTrak SupGP

Epoch: Sep 14, 2026, 13:29 UTC

1 53224C 22084AM  26257.56229167  .00078136  00000+0  24254-2 0  2572
2 53224  97.2839 312.4270 0000979 102.7523 173.4596 15.33401317    14

Track STARLINK-4356 in real time with AllMySat

Download on the App Store